[[{"header":{"parameterUnit":"m.s-1","parameterCategory":1,"la1":30.2991,"la2":30.254,"lo1":-89.0895,"lo2":-89.0444,"dy":0.0017,"dx":0.0017,"nx":28,"ny":28,"refTime":"2024-08-23T21:00:00:Z","depth":0,"parameterNumber":2,"parameterNumberName":"U-component_of_WINDS"},"data":[0,0,0,0,0,0,0,0,0,0,0,0,0,0,0,0,0,0,0,0,0,0,0,0,0,0,0,0,0,0,0,0,0,0,0,0,0,0,0,0,0,0,0,0,0,0,0,0,0,0,0,0,0,0,0,0,0,0,-5.5553,-5.5554,0,-5.5643,-5.5644,-5.5645,-5.5472,-5.5467,-5.5461,-5.5455,-5.5548,-5.5555,-5.5563,0,0,0,0,0,0,0,0,0,0,0,0,0,-5.5229,-5.5236,-5.5553,-5.5554,-5.5555,-5.5643,-5.5645,-5.5646,-5.5473,-5.5466,-5.5459,-5.5453,-5.5545,-5.5554,-5.5564,0,0,0,0,0,0,0,0,0,0,0,0,0,-5.535,-5.5238,-5.5553,-5.548,-5.5474,-5.5643,-5.5645,-5.5646,-5.5475,-5.5466,-5.5458,-5.545,-5.5542,-5.5553,-5.5565,-5.5809,0,0,-5.5601,-5.5606,0,0,0,0,0,0,0,0,-5.5343,-5.5362,-5.549,-5.5485,-5.5479,-5.5538,-5.5564,-5.5701,-5.5477,-5.5475,-5.5455,-5.5445,-5.5551,-5.5562,-5.5597,-5.5813,-5.5817,-5.5602,-5.5609,-5.5614,-5.5617,0,0,0,0,0,0,0,-5.5335,-5.5357,-5.5589,-5.5492,-5.5485,-5.5442,-5.545,-5.5589,-5.556,-5.5474,-5.5462,-5.5475,-5.5547,-5.5587,-5.5598,-5.5819,-5.5601,-5.5612,-5.5619,-5.5624,-5.6237,-5.6246,0,0,0,0,0,0,-5.5336,-5.5351,-5.5586,-5.5591,-5.5389,-5.5455,-5.5463,-5.5528,-5.5558,-5.5554,-5.5482,-5.5466,-5.5571,-5.5585,-5.5601,-5.5888,-5.5614,-5.5625,-5.5631,-5.6228,-5.6239,-5.6249,0,0,0,0,0,0,-5.533,-5.5359,-5.5582,-5.5468,-5.5493,-5.5469,-5.5543,-5.5534,-5.5573,-5.5564,-5.5558,-5.5528,-5.5565,-5.5585,-5.5758,-5.5888,-5.563,-5.5641,-5.6217,-5.6232,-5.6244,-5.6464,0,0,0,0,0,0,-5.5321,-5.5358,-5.5451,-5.5472,-5.55,-5.5739,-5.5551,-5.5542,-5.5594,-5.5575,-5.5606,-5.5603,-5.556,-5.5742,-5.577,-5.59,-5.565,-5.6205,-5.6224,-5.624,-5.6445,-5.6484,-5.6517,0,0,0,0,0,-5.531,-5.5509,-5.5456,-5.5485,-5.5616,-5.5747,-5.5763,-5.571,-5.5605,-5.5698,-5.5692,-5.5602,-5.587,-5.5761,-5.5791,-5.5927,-5.6197,-5.6218,-5.6239,-5.6429,-5.6476,-5.6516,0,0,0,0,0,0,-5.5504,-5.551,-5.5452,-5.5663,-5.5706,-5.5718,-5.5833,-5.5762,-5.5835,-5.5813,-5.5743,-5.5752,-5.5939,-5.595,-5.5829,-5.6164,-5.6016,-5.6044,-5.615,-5.6195,-5.623,-5.6224,-5.5659,0,0,0,0,0,-5.5571,-5.5678,-5.5677,-5.5864,-5.5888,-5.5858,-5.5913,-5.5868,-5.5909,-5.5926,-5.5932,-5.5976,-5.6069,-5.6132,-5.6218,-5.6446,-5.6449,-5.6554,-5.659,-5.6619,-5.6644,-5.6764,-5.681,-5.6318,-5.6318,-5.6318,0,0,-5.5712,-5.5728,-5.58,-5.5903,-5.5931,-5.6042,-5.5874,-5.5999,-5.608,-5.5945,-5.6109,-5.6116,-5.6159,-5.6361,-5.6449,-5.6375,-5.6781,-5.6646,-5.6669,-5.6678,-5.6791,-5.6837,-5.6879,-5.6332,-5.633,-5.6328,0,0,-5.6024,-5.6048,-5.6205,-5.6236,-5.628,-5.6258,-5.6296,-5.6319,-5.6318,-5.6481,-5.6381,-5.6477,-5.664,-5.6675,-5.6714,-5.7039,-5.6958,-5.7069,-5.7256,-5.7374,-5.7413,-5.7447,-5.7562,-5.7605,-5.7093,-5.7094,-5.7094,0,-5.6192,-5.6356,-5.6295,-5.6427,-5.6475,-5.6357,-5.6515,-5.6548,-5.6619,-5.6654,-5.657,-5.6771,-5.6792,-5.7,-5.7079,-5.7115,-5.7155,-5.7065,-5.7412,-5.7446,-5.7477,-5.7586,-5.7629,-5.7107,-5.7106,-5.7104,-5.7103,0,-5.6561,-5.6676,-5.6798,-5.6869,-5.693,-5.7075,-5.7035,-5.7105,-5.7054,-5.7041,-5.7209,-5.723,-5.7317,-5.7363,-5.7315,-5.7564,-5.7516,-5.7424,-5.7273,-5.7538,-5.7639,-5.768,-5.7126,-5.7121,-5.7117,-5.7114,0,0,-5.6998,-5.7032,-5.7078,-5.7108,-5.7148,-5.7235,-5.7374,-5.7459,-5.752,-5.7572,-5.7686,-5.7827,-5.7741,-5.7786,-5.774,-5.7844,-5.8099,-5.7738,-5.7738,-5.7804,-5.8374,-5.8443,-5.8492,-5.8045,-5.8053,-5.8059,-5.837,0,-5.7307,-5.7547,-5.7495,-5.773,-5.7835,-5.7724,-5.7845,-5.7882,-5.7874,-5.7961,-5.795,-5.8051,-5.793,-5.7956,-5.8054,-5.8047,-5.8212,-5.8024,-5.8151,-5.8156,-5.8143,-5.8545,-5.8619,-5.8911,-5.8409,-5.8416,-5.842,0,-5.77,-5.7767,-5.8013,-5.8034,-5.8076,-5.8186,-5.826,-5.8345,-5.8384,-5.837,-5.842,-5.8355,-5.8491,-5.834,-5.8527,-5.84,-5.8449,-5.8453,-5.8463,-5.8473,-5.8304,-5.8566,-5.9003,-5.9047,-5.8482,-5.8477,-5.8473,0,-5.7994,-5.8145,-5.8311,-5.834,-5.837,-5.845,-5.8466,-5.8496,-5.8551,-5.8615,-5.8649,-5.8729,-5.8773,-5.8836,-5.8793,-5.8687,-5.8987,-5.8832,-5.8979,-5.8981,-5.9048,-5.9044,-5.9499,-5.908,-5.908,-5.9079,-5.9078,0,-5.8344,-5.8499,-5.8443,-5.8546,-5.8715,-5.8654,-5.8823,-5.8826,-5.8855,-5.8955,-5.8864,-5.896,-5.8898,-5.8989,-5.8956,-5.9116,-5.9136,-5.9129,-5.9118,-5.9137,-5.9138,-5.9168,-5.9146,-5.909,-5.9088,-5.9085,-5.9083,0,-5.87,-5.867,-5.8844,-5.8857,-5.8864,-5.8989,-5.9,-5.9095,-5.9079,-5.9207,-5.9234,-5.9209,-5.9311,-5.9275,-5.9384,-5.9362,-5.9565,-5.9529,-5.9553,-5.9543,-5.9692,-5.9678,-6.0182,-6.0244,-5.9786,-5.979,-5.9794,0,-5.8926,-5.9042,-5.9068,-5.9129,-5.9152,-5.9251,-5.9306,-5.925,-5.9311,-5.9364,-5.9452,-5.9546,-5.9619,-5.9787,-5.9779,-5.9862,-5.9826,-5.9997,-5.9838,-5.9853,-5.9828,-5.9821,-5.9832,-6.0028,-6.0034,-6.0038,-6.0042,0,-5.9329,-5.9308,-5.9391,-5.9469,-5.9537,-5.9596,-5.9647,-5.9701,-5.9648,-5.9721,-5.9824,-5.9881,-5.9992,-6.0086,-6.0161,-6.0176,-6.0101,-6.0092,-6.013,-6.015,-6.0159,-6.0155,-5.9639,-6.008,-6.0076,-6.0074,-6.0071,-6.007,-5.9626,-5.9724,-5.9758,-5.9853,-5.9885,-5.9934,-6.0024,-6.0019,-6.0104,-6.0191,-6.0152,-6.0272,-6.0307,-6.0399,-6.0425,-6.0517,-6.0451,-6.0506,-6.052,-6.0535,-6.0554,-6.0145,-6.053,-6.0529,-6.0528,-6.0527,-6.0526,0,-6.0024,-6.004,-6.0128,-6.0202,-6.0277,-6.0199,-6.0251,-6.0318,-6.0424,-6.0464,-6.0537,-6.0655,-6.0746,-6.0745,-6.0829,-6.0903,-6.0871,-6.0927,-6.0921,-6.0926,-6.0609,-6.0567,-6.0952,-6.0952,-6.0952,-6.0952,-6.0952,-6.0952,-6.0239,-6.0401,-6.0384,-6.056,-6.0574,-6.069,-6.0727,-6.0771,-6.0802,-6.0939,-6.1014,-6.1012,-6.1035,-6.112,-6.12,-6.1197,-6.1232,-6.1302,-6.1287,-6.099,-6.0948,-6.0908,-6.0868,-6.131,-6.1311,-6.1595,-6.1598,-6.16]},{"header":{"parameterUnit":"m.s-1","parameterCategory":1,"la1":30.2991,"la2":30.254,"lo1":-89.0895,"lo2":-89.0444,"dy":0.0017,"dx":0.0017,"nx":28,"ny":28,"refTime":"2024-08-23T21:00:00:Z","depth":0,"parameterNumber":3,"parameterNumberName":"V-component_of_WINDS"},"data":[0,0,0,0,0,0,0,0,0,0,0,0,0,0,0,0,0,0,0,0,0,0,0,0,0,0,0,0,0,0,0,0,0,0,0,0,0,0,0,0,0,0,0,0,0,0,0,0,0,0,0,0,0,0,0,0,0,0,-1.8332,-1.8332,0,-1.8351,-1.8351,-1.8351,-1.8329,-1.8329,-1.8328,-1.8327,-1.8346,-1.8347,-1.8349,0,0,0,0,0,0,0,0,0,0,0,0,0,-1.8276,-1.8277,-1.8332,-1.8332,-1.8333,-1.8351,-1.8351,-1.8351,-1.8329,-1.8328,-1.8327,-1.8327,-1.8346,-1.8347,-1.8349,0,0,0,0,0,0,0,0,0,0,0,0,0,-1.8298,-1.8277,-1.8332,-1.8324,-1.8323,-1.8351,-1.8351,-1.8351,-1.833,-1.8328,-1.8327,-1.8326,-1.8345,-1.8347,-1.8349,-1.8385,0,0,-1.8355,-1.8356,0,0,0,0,0,0,0,0,-1.8297,-1.83,-1.8325,-1.8325,-1.8324,-1.8337,-1.8338,-1.8363,-1.833,-1.8327,-1.8327,-1.8325,-1.8344,-1.8346,-1.8352,-1.8386,-1.8387,-1.8355,-1.8356,-1.8357,-1.8357,0,0,0,0,0,0,0,-1.8295,-1.8299,-1.834,-1.8325,-1.8325,-1.8319,-1.8321,-1.8343,-1.8342,-1.8327,-1.8326,-1.8328,-1.8343,-1.835,-1.8352,-1.8387,-1.8355,-1.8356,-1.8358,-1.8358,-1.845,-1.8451,0,0,0,0,0,0,-1.8295,-1.8298,-1.8339,-1.834,-1.8307,-1.8321,-1.8323,-1.8334,-1.8342,-1.8342,-1.8329,-1.8327,-1.8348,-1.835,-1.8353,-1.8395,-1.8357,-1.8359,-1.836,-1.8449,-1.845,-1.8452,0,0,0,0,0,0,-1.8294,-1.8299,-1.8338,-1.8319,-1.8323,-1.8323,-1.8336,-1.8335,-1.8342,-1.8343,-1.8343,-1.8337,-1.8347,-1.835,-1.8377,-1.8395,-1.8359,-1.8361,-1.8447,-1.8449,-1.8451,-1.848,0,0,0,0,0,0,-1.8292,-1.8298,-1.8313,-1.8319,-1.8324,-1.8363,-1.8337,-1.8336,-1.8345,-1.8342,-1.835,-1.835,-1.8346,-1.8374,-1.8379,-1.8397,-1.8363,-1.8445,-1.8448,-1.845,-1.8477,-1.8482,-1.8487,0,0,0,0,0,-1.829,-1.8321,-1.8314,-1.8319,-1.8343,-1.8364,-1.8367,-1.8361,-1.8347,-1.8361,-1.8361,-1.835,-1.8392,-1.8377,-1.8382,-1.8401,-1.8444,-1.8447,-1.845,-1.8475,-1.8481,-1.8487,0,0,0,0,0,0,-1.8317,-1.8322,-1.8314,-1.8347,-1.8355,-1.836,-1.8378,-1.8368,-1.8381,-1.8378,-1.837,-1.8372,-1.84,-1.8403,-1.8386,-1.8436,-1.8416,-1.842,-1.8433,-1.8439,-1.8444,-1.8442,-1.8364,0,0,0,0,0,-1.8327,-1.8344,-1.8347,-1.8376,-1.838,-1.8378,-1.8387,-1.8382,-1.839,-1.8394,-1.8396,-1.8404,-1.8419,-1.8429,-1.8443,-1.8477,-1.8478,-1.8493,-1.8497,-1.8501,-1.8505,-1.8521,-1.8528,-1.8461,-1.8461,-1.8461,0,0,-1.8348,-1.8352,-1.8364,-1.8382,-1.8387,-1.8404,-1.8381,-1.8401,-1.8414,-1.8397,-1.8422,-1.8424,-1.8432,-1.8462,-1.8475,-1.8465,-1.8523,-1.8505,-1.8508,-1.851,-1.8525,-1.8531,-1.8537,-1.8463,-1.8463,-1.8462,0,0,-1.8394,-1.8399,-1.8423,-1.8429,-1.8437,-1.8435,-1.8441,-1.8447,-1.8447,-1.8472,-1.8459,-1.8473,-1.85,-1.8505,-1.8512,-1.8558,-1.8547,-1.8562,-1.8588,-1.8604,-1.8609,-1.8614,-1.8629,-1.8634,-1.8566,-1.8566,-1.8566,0,-1.8419,-1.8444,-1.8437,-1.8457,-1.8465,-1.8449,-1.8473,-1.8478,-1.8491,-1.8496,-1.8485,-1.8516,-1.8521,-1.8551,-1.8562,-1.8568,-1.8573,-1.8562,-1.8609,-1.8613,-1.8618,-1.8632,-1.8638,-1.8568,-1.8567,-1.8567,-1.8567,0,-1.8473,-1.8491,-1.8509,-1.8521,-1.8531,-1.8552,-1.8548,-1.8558,-1.8552,-1.855,-1.8575,-1.858,-1.8593,-1.86,-1.8594,-1.8629,-1.8622,-1.861,-1.859,-1.8626,-1.8639,-1.8645,-1.857,-1.8569,-1.8569,-1.8569,0,0,-1.8539,-1.8544,-1.8551,-1.8555,-1.8562,-1.8575,-1.8595,-1.8608,-1.8617,-1.8626,-1.8642,-1.8663,-1.8651,-1.8658,-1.8653,-1.8667,-1.8701,-1.8653,-1.8653,-1.8661,-1.8738,-1.8747,-1.8753,-1.8694,-1.8695,-1.8696,-1.8737,0,-1.8584,-1.8619,-1.8612,-1.8646,-1.8661,-1.8646,-1.8663,-1.8668,-1.8667,-1.868,-1.8679,-1.8694,-1.8677,-1.8681,-1.8695,-1.8694,-1.8716,-1.8691,-1.8708,-1.8709,-1.8706,-1.876,-1.877,-1.8809,-1.8742,-1.8743,-1.8744,0,-1.8642,-1.8652,-1.8687,-1.8689,-1.8695,-1.8711,-1.8721,-1.8734,-1.8739,-1.8737,-1.8744,-1.8735,-1.8754,-1.8733,-1.8759,-1.8742,-1.8748,-1.8749,-1.875,-1.8751,-1.8728,-1.8763,-1.8821,-1.8827,-1.8752,-1.8751,-1.8751,0,-1.8685,-1.8707,-1.873,-1.8734,-1.8738,-1.8749,-1.8751,-1.8755,-1.8762,-1.8771,-1.8775,-1.8786,-1.8792,-1.8801,-1.8795,-1.878,-1.8821,-1.88,-1.8819,-1.8819,-1.8828,-1.8828,-1.8889,-1.8833,-1.8833,-1.8833,-1.8833,0,-1.8736,-1.8758,-1.8749,-1.8763,-1.8787,-1.8778,-1.8801,-1.8801,-1.8804,-1.8818,-1.8805,-1.8818,-1.8809,-1.8821,-1.8817,-1.8838,-1.8841,-1.8839,-1.8838,-1.884,-1.884,-1.8844,-1.8841,-1.8835,-1.8834,-1.8834,-1.8834,0,-1.8788,-1.8783,-1.8807,-1.8808,-1.8808,-1.8825,-1.8826,-1.8838,-1.8836,-1.8853,-1.8856,-1.8852,-1.8865,-1.886,-1.8874,-1.8871,-1.8897,-1.8893,-1.8895,-1.8894,-1.8913,-1.8911,-1.8978,-1.8986,-1.8926,-1.8927,-1.8927,0,-1.8821,-1.8837,-1.8839,-1.8847,-1.8849,-1.8862,-1.8869,-1.886,-1.8868,-1.8874,-1.8886,-1.8898,-1.8907,-1.8928,-1.8927,-1.8937,-1.8932,-1.8954,-1.8933,-1.8935,-1.8931,-1.893,-1.8931,-1.8959,-1.8959,-1.896,-1.896,0,-1.888,-1.8875,-1.8886,-1.8895,-1.8903,-1.891,-1.8916,-1.8923,-1.8914,-1.8924,-1.8936,-1.8943,-1.8957,-1.8968,-1.8977,-1.8979,-1.8968,-1.8967,-1.8972,-1.8974,-1.8975,-1.8974,-1.8906,-1.8966,-1.8965,-1.8965,-1.8964,-1.8964,-1.8922,-1.8935,-1.8938,-1.8949,-1.8952,-1.8957,-1.8969,-1.8967,-1.8977,-1.8987,-1.8981,-1.8996,-1.8999,-1.9009,-1.9012,-1.9023,-1.9014,-1.9021,-1.9023,-1.9025,-1.9027,-1.8973,-1.9025,-1.9025,-1.9024,-1.9024,-1.9024,0,-1.8979,-1.898,-1.899,-1.8998,-1.9006,-1.8995,-1.9,-1.9008,-1.9021,-1.9024,-1.9033,-1.9047,-1.9057,-1.9056,-1.9065,-1.9074,-1.9069,-1.9077,-1.9076,-1.9076,-1.9035,-1.9029,-1.908,-1.908,-1.908,-1.908,-1.908,-1.908,-1.901,-1.903,-1.9026,-1.9048,-1.9048,-1.9061,-1.9065,-1.9069,-1.9072,-1.9088,-1.9096,-1.9095,-1.9096,-1.9105,-1.9114,-1.9113,-1.9117,-1.9126,-1.9123,-1.9085,-1.9079,-1.9074,-1.9069,-1.9127,-1.9127,-1.9163,-1.9163,-1.9164]}]]